Regional Weather Roundup
Issued by NWS

Home | Current Version | Previous Version | Text Only | Print | Product List | Glossary Off
Versions: 1 2 3 4 5 6 7 8 9 10 11 12 13 14 15 16 17 18 19 20 21 22 23 24 25 26 27 28 29 30 31 32 33 34 35 36 37 38 39 40 41 42 43 44 45 46 47 48 49 50

024
ASUS43 KDMX 212306
RWRIA

WEATHER ROUNDUP FOR IOWA
NATIONAL WEATHER SERVICE DES MOINES IA
500 PM CST SAT JAN 21 2017

NOTE: "FAIR" INDICATES FEW OR NO CLOUDS BELOW 12,000 FEET WITH NO
SIGNIFICANT WEATHER AND/OR OBSTRUCTIONS TO VISIBILITY.

* - THESE STATIONS ARE NOT NWS STATIONS...THUS NOT UNDER NWS
QUALITY CONTROL.  THEY ALSO DO NOT REPORT WEATHER SUCH
AS PRECIPITATION OR FOG.

IAZ001>003-012>014-020>022-031>034-043>046-220000-
   NORTHWEST IOWA

CITY           SKY/WX    TMP DP  RH WIND       PRES   REMARKS
CARROLL *      CLEAR     43  41  93 W5        29.47R
CHEROKEE *     CLOUDY    35  33  93 NW6       29.47R WCI  30
DENISON *      CLEAR     43  39  87 W6        29.45R
LE MARS *      CLEAR     36  32  87 NW9       29.48R WCI  29
ORANGE CITY *  CLOUDY    34  32  93 W9        29.46R FOG     WCI  26
SHELDON *      CLOUDY    32  32 100 W16       29.45R WCI  21
SIOUX CITY     CLEAR     41  35  79 N6        29.47R
SPENCER        CLOUDY    32  30  92 W15       29.47R WCI  22
STORM LAKE *   PTCLDY    37  36  93 W8        29.46R WCI  31
$$

IAZ055>058-069>071-079>083-090>094-220000-
   SOUTHWEST IOWA

CITY           SKY/WX    TMP DP  RH WIND       PRES   REMARKS
ATLANTIC *     CLEAR     43  41  93 S5        29.48R
AUDUBON *      CLEAR     43  39  87 S5        29.48R
CLARINDA *     CLEAR     48  43  81 S3        29.51R
COUNCIL BLFS * CLEAR     48  39  71 W7        29.47R
CRESTON *      CLEAR     45  41  87 SW5       29.51R
HARLAN  *      CLEAR     45  45 100 S6        29.51R
LAMONI         CLEAR     44  39  82 S7        29.51R
RED OAK *      CLEAR     48  45  87 CALM      29.49R
SHENANDOAH *   CLEAR     50  41  71 SW5       29.50R
$$

IAZ047>049-059>061-072>074-084-220000-
   CENTRAL IOWA

CITY           SKY/WX    TMP DP  RH WIND       PRES   REMARKS
AMES           PTCLDY    42  40  92 W8        29.48R
ANKENY *       PTCLDY    43  37  81 W6        29.50R
BOONE *        PTCLDY    41  41 100 SW8       29.47R
CHARITON *     CLOUDY    43  41  93 SW6       29.51R
DES MOINES     MOCLDY    43  38  82 SW9       29.49R
GRINNELL*      CLOUDY    43  42  97 SW8       29.49R
KNOXVILLE *    CLOUDY    43  39  87 SW6       29.49R
MARSHALLTOWN   CLOUDY    43  41  93 SW9       29.47R
NEWTON *       CLOUDY    43  39  87 SW9       29.49R
PELLA *        CLOUDY    44  40  86 SW6       29.52R
PERRY *          N/A     42  39  91 SW6       29.48S
$$

IAZ004>006-015-016-023>025-035-036-220000-
   NORTH CENTRAL IOWA

CITY           SKY/WX    TMP DP  RH WIND       PRES   REMARKS
ALGONA *       CLOUDY    37  37 100 SW7       29.46R FOG     WCI  32
CLARION *      CLOUDY    39  39 100 W12       29.47R WCI  32
ESTHERVILLE    CLOUDY    34  34 100 W10       29.45R WCI  26
FORT DODGE *   CLOUDY    39  36  87 W5        29.48R
MASON CITY     FOG       37  37 100 SW7       29.46R VSB 1/4 WCI  32
FOREST CITY *  DRZL/FOG  36  36 100 SW5       29.45R VSB 3/4 WCI  32
WEBSTER CITY * CLOUDY    39 N/A N/A W7        29.45R WCI  34
IOWA FALLS *   CLOUDY    40  39  97 SW6       29.47R FOG
$$

IAZ007>011-017>019-026>030-037>042-050>054-066-220000-
   NORTHEAST IOWA

CITY           SKY/WX    TMP DP  RH WIND       PRES   REMARKS
CEDAR RAPIDS   CLOUDY    42  41  96 SW9       29.50R FOG
CHARLES CITY * FOG       37  37 100 SW7       29.46R VSB<1/4 WCI  32
CLINTON *      CLOUDY    43  41  93 W10       29.53R
DECORAH *      FOG       39  37  93 S5        29.45R VSB<1/4
DUBUQUE        CLOUDY    41  41 100 SW9       29.50R FOG
MONTICELLO *   CLOUDY    43  43 100 S7        29.50R FOG
OELWEIN *      FOG       39  39 100 SW8       29.48R VSB<1/4 WCI  34
WATERLOO       CLOUDY    42  39  89 W6        29.48R
$$

IAZ064-065-067-068-078-220000-
   EAST CENTRAL IOWA

CITY           SKY/WX    TMP DP  RH WIND       PRES   REMARKS
DAVENPORT      CLOUDY    43  41  93 SW10      29.53R FOG
IOWA CITY      CLOUDY    45  42  89 SW6       29.53R
MUSCATINE *    CLOUDY    45  43  93 SW5       29.53S
QUAD CITIES    CLOUDY    46  42  86 W12       29.52R
$$

IAZ062-063-075>077-085>089-095>099-220000-
   SOUTHEAST IOWA

CITY           SKY/WX    TMP DP  RH WIND       PRES   REMARKS
BURLINGTON     CLOUDY    49  45  86 NW6       29.52R
FAIRFIELD *    CLOUDY    45  41  87 SW9       29.52R
FORT MADISON * CLEAR     48  46  93 W5        29.53R
KEOKUK *       CLEAR     50 N/A N/A W9        29.52R
OSKALOOSA *    CLOUDY    42  40  91 W7        29.52R
CENTERVILLE *    N/A     41  41 100 CALM      29.53R
OTTUMWA        CLOUDY    45  40  82 SW9       29.51R
WASHINGTON *   CLOUDY    45  43  93 W8        29.53R
$$

ABBREVIATIONS USED IN REMARKS
   TC - TEMPERATURES IN CELSIUS
  WCI - WIND CHILL INDEX
   HX - HEAT INDEX
  VSB - VISIBILITY
$$





USA.gov is the U.S. government's official web portal to all federal, state and local government web resources and services.